TimeHST,TemperatureF,Dew PointF,Humidity,Sea Level PressureIn,VisibilityMPH,Wind Direction,Wind SpeedMPH,Gust SpeedMPH,PrecipitationIn,Events,Conditions,WindDirDegrees,DateUTC
12:55 AM,77.0,71.6,83,30.03,6.2,NE,9.2,-,N/A,,Mostly Cloudy,40,2013-08-05 10:55:00
12:57 AM,77.0,71.1,82,30.02,10.0,NE,9.2,-,N/A,,Mostly Cloudy,40,2013-08-05 10:57:00
1:06 AM,-9999,-9999,N/A,30.03,6.2,NE,8.1,-,N/A,,Scattered Clouds,40,2013-08-05 11:06:00
1:15 AM,-9999,-9999,N/A,30.03,6.2,NE,10.4,-,0.00,Rain,Rain,40,2013-08-05 11:15:00
1:23 AM,-9999,-9999,N/A,30.02,6.2,NNE,9.2,-,0.00,Rain,Light Rain,20,2013-08-05 11:23:00
1:57 AM,75.2,71.1,87,30.00,10.0,East,4.6,-,0.00,,Partly Cloudy,80,2013-08-05 11:57:00
2:57 AM,75.2,68.0,78,29.99,10.0,ENE,4.6,-,N/A,,Scattered Clouds,70,2013-08-05 12:57:00
3:57 AM,75.2,69.1,81,29.99,10.0,East,4.6,-,N/A,,Mostly Cloudy,90,2013-08-05 13:57:00
4:57 AM,75.2,68.0,78,29.99,10.0,ENE,5.8,-,N/A,,Scattered Clouds,70,2013-08-05 14:57:00
5:57 AM,77.0,69.1,76,30.00,10.0,ENE,5.8,-,N/A,,Scattered Clouds,70,2013-08-05 15:57:00
6:57 AM,77.0,69.1,76,30.01,10.0,East,8.1,-,0.00,,Mostly Cloudy,90,2013-08-05 16:57:00
7:22 AM,77.0,71.6,83,30.03,6.2,East,4.6,-,N/A,,Mostly Cloudy,80,2013-08-05 17:22:00
7:42 AM,77.0,71.6,83,30.03,6.2,ENE,9.2,-,0.00,,Scattered Clouds,70,2013-08-05 17:42:00
7:57 AM,77.0,71.1,82,30.03,10.0,East,8.1,16.1,0.00,,Scattered Clouds,90,2013-08-05 17:57:00
8:57 AM,77.0,70.0,79,30.03,10.0,East,6.9,16.1,N/A,,Scattered Clouds,90,2013-08-05 18:57:00
9:57 AM,77.0,71.1,82,30.04,10.0,East,9.2,18.4,N/A,,Scattered Clouds,80,2013-08-05 19:57:00
10:57 AM,78.8,70.0,74,30.03,10.0,ENE,8.1,16.1,N/A,,Scattered Clouds,70,2013-08-05 20:57:00
11:04 AM,80.6,69.8,70,30.05,6.2,ENE,10.4,18.4,N/A,,Mostly Cloudy,70,2013-08-05 21:04:00
11:57 AM,80.6,70.0,70,30.02,10.0,ENE,11.5,17.3,N/A,,Scattered Clouds,60,2013-08-05 21:57:00
12:04 PM,84.2,69.8,62,30.03,6.2,ENE,10.4,17.3,N/A,,Mostly Cloudy,70,2013-08-05 22:04:00
12:54 PM,84.2,69.8,62,30.02,6.2,ENE,10.4,-,N/A,,Scattered Clouds,60,2013-08-05 22:54:00
12:57 PM,84.2,69.1,60,30.00,10.0,ENE,10.4,-,N/A,,Scattered Clouds,70,2013-08-05 22:57:00
1:57 PM,86.0,70.0,59,29.99,10.0,ENE,9.2,16.1,N/A,,Scattered Clouds,60,2013-08-05 23:57:00
2:04 PM,86.0,69.8,58,30.00,6.2,NE,10.4,-,N/A,,Overcast,50,2013-08-06 00:04:00
2:25 PM,86.0,69.8,58,30.00,6.2,NE,10.4,-,N/A,,Mostly Cloudy,50,2013-08-06 00:25:00
2:57 PM,86.0,69.1,57,29.98,10.0,ENE,11.5,17.3,N/A,,Mostly Cloudy,70,2013-08-06 00:57:00
3:57 PM,84.2,71.1,65,29.97,10.0,ENE,11.5,-,N/A,,Scattered Clouds,60,2013-08-06 01:57:00
4:57 PM,77.0,71.1,82,29.97,10.0,ENE,10.4,-,N/A,,Clear,60,2013-08-06 02:57:00
5:57 PM,77.0,70.0,79,29.98,10.0,ENE,8.1,-,N/A,,Scattered Clouds,60,2013-08-06 03:57:00
6:57 PM,77.0,69.1,76,29.99,10.0,ENE,8.1,-,N/A,,Partly Cloudy,70,2013-08-06 04:57:00
7:57 PM,77.0,68.0,74,30.01,10.0,East,5.8,-,N/A,,Mostly Cloudy,90,2013-08-06 05:57:00
8:09 PM,75.2,69.8,83,30.03,6.2,East,6.9,-,N/A,,Overcast,80,2013-08-06 06:09:00
8:25 PM,75.2,69.8,83,30.03,6.2,ENE,9.2,-,N/A,,Overcast,70,2013-08-06 06:25:00
8:57 PM,75.2,69.1,81,30.02,10.0,ENE,5.8,-,N/A,,Overcast,60,2013-08-06 06:57:00
9:57 PM,75.2,70.0,84,30.04,10.0,East,8.1,16.1,N/A,,Scattered Clouds,80,2013-08-06 07:57:00
10:57 PM,75.2,68.0,78,30.03,10.0,East,8.1,18.4,N/A,,Scattered Clouds,90,2013-08-06 08:57:00
11:26 PM,75.2,69.8,83,30.04,6.2,ENE,5.8,-,N/A,,Mostly Cloudy,70,2013-08-06 09:26:00
11:57 PM,75.2,69.1,81,30.02,10.0,East,6.9,16.1,N/A,,Mostly Cloudy,90,2013-08-06 09:57:00